Regional Weather Roundup
Issued by NWS Charleston, SC

Current Version | Previous Version | Graphics & Text | Print | Product List | Glossary On
Versions: 1 2 3 4 5 6 7 8 9 10 11 12 13 14 15 16 17 18 19 20 21 22 23 24 25 26 27 28 29 30 31 32 33 34 35 36 37 38 39 40 41 42 43 44 45 46 47 48 49 50
555 ASUS42 KCHS 022328 RWRCHS REGIONAL WEATHER ROUNDUP NATIONAL WEATHER SERVICE CHARLESTON SC 700 PM EDT MON MAY 02 2016 NOTE: "FAIR" INDICATES FEW OR NO CLOUDS BELOW 12,000 FEET WITH NO SIGNIFICANT WEATHER AND/OR OBSTRUCTIONS TO VISIBILITY. NOT ALL STATIONS ARE QUALITY CONTROLLED. USE DATA WITH CAUTION... ESPECIALLY DEWPOINT OBSERVATIONS. SCZ027-030-031-034>040-042>050-030000- ...SOUTHEAST SOUTH CAROLINA... CITY SKY/WX TMP DP RH WIND PRES REMARKS N CHARLESTON LGT RAIN 76 70 82 SW9 29.96R WATERFRONT PRK N/A 75 73 93 S9 29.93F MOUNT PLEASANT FAIR 75 72 88 S6 29.97R JOHNS ISLAND DRIZZLE 75 73 94 S7 29.97R PINOPOLIS N/A 81 66 61 VRB3 29.85S MONCKS CORNER FAIR 73 63 68 S9 29.95R SUMMERVILLE FAIR 73 70 88 S6 29.96R BEAUFORT MCAS LGT RAIN 74 72 93 S3 29.96R FOG BEAUFORT ARPT MOCLDY 75 72 88 S6 29.96R FOG HILTON HEAD IS PTSUNNY 77 70 78 SE7 29.97S WALTERBORO RAIN 73 70 88 SW10 29.97R ALLENDALE MOCLDY 72 68 88 CALM 29.94S ...SOUTHERN MIDLANDS AND PEE DEE... CITY SKY/WX TMP DP RH WIND PRES REMARKS GEORGETOWN FAIR 73 68 83 S10 29.97R KINGSTREE MOCLDY 72 68 88 CALM 29.93F ORANGEBURG RAIN 72 67 84 W10 29.98R BARNWELL MOCLDY 72 72 100 W6 29.97R AIKEN MOCLDY 72 64 78 CALM 29.95F MANNING FAIR 72 70 94 SW5 29.94R COLUMBIA CLOUDY 77 68 73 CALM 29.91S SUMTER NOT AVBL FLORENCE PTSUNNY 79 65 62 S8 29.92F MYRTLE BEACH NOT AVBL N MYRTLE BEACH MOSUNNY 74 70 87 S12 29.96R $$ GAZ063-065-086>088-099>101-113>116-118-119-134>141-150-030000- ...SOUTHEAST GEORGIA... CITY SKY/WX TMP DP RH WIND PRES REMARKS SAVANNAH ARPT CLOUDY 76 71 85 SE6 29.96R HUNTER AAF NOT AVBL FORT STEWART NOT AVBL STATESBORO TSTM 73 72 97 SE6 29.95F SYLVANIA TSTM 71 70 97 S6 29.99R CLAXTON DRIZZLE 70 70 100 NE6 29.96S ...CSRA...CENTRAL AND FAR SOUTHEAST GEORGIA... CITY SKY/WX TMP DP RH WIND PRES REMARKS THOMSON PTSUNNY 76 74 93 CALM 29.95S AUGUSTA-BUSH TSTM 72 69 90 SE3 29.90S AUGUSTA-DANIEL CLOUDY 74 69 85 E3 29.91F SWAINSBORO LGT RAIN 77 72 83 SE8 29.95R VIDALIA CLOUDY 75 70 83 E9 29.95R THUNDER EASTMAN FAIR 75 71 88 SW7 29.98R HAZLEHURST MOCLDY 78 71 78 S5 29.94R ALMA CLOUDY 73 72 96 CALM 29.94S WAYCROSS CLOUDY 79 69 72 W3 29.94R JESUP FAIR 73 73 100 E6 29.94F BAXLEY CLOUDY 72 72 100 CALM 29.94F BRUNSWICK CLOUDY 82 73 74 SE8 29.95S SAINT SIMONS PTSUNNY 76 73 91 S10 29.95R $$ SCZ027-028-034-036>038-045-046-048>050-GAZ119-141-030000- ...LAKE AND SUPPLEMENTAL COASTAL OBSERVATIONS... STATION/POSITION TIME TEMP WIND PRES WAVE SWELL AIR SEA DIR/SP/G HT/PER HT/PER/DIR (UTC) (F) (DEG/KT/KT) (MB) (FT/S) (FT/S/D) WINYAH BAY 2200 77 200/ 14 1014.0 LAKE MURRAY 2200 75 CALM / 5 1012.5F ACE BASIN NERRS 2245 74 CALM 1014.0F FORT PULASKI 2300 76 74 180/ 3/ 6 1015.2R SAPELO ISLAND 2300 77 160/ 8 1014.0S $$ ANZ835-935-AMZ111-154-330-350-352-354-370-450-454-472-030000- ...C-MAN AND BUOY OBSERVATIONS... STATION/POSITION TIME TEMP WIND PRES WAVE SWELL AIR SEA DIR/SP/G HT/PER HT/PER/DIR (UTC) (F) (DEG/KT/KT) (MB) (FT/S) (FT/S/D) BUOY 41004 2250 76 75 180/ 10/ 12 1014.3F 3/ 6 2/ 6 BUOY 41008 NOT AVBL FOLLY BEACH CMAN 2300 74 190/ 12/ 14 1014.7S CAPERS NEARSHORE 2308 74 74 200/ 12/ 16 1014.5R FRIPP NEARSHORE 2308 75 75 190/ 12/ 14 1013.9R STATION/POSITION TIME TEMP WIND PRES WAVE SWELL AIR SEA DIR/SP/G HT/PER HT/PER/DIR (UTC) (F) (DEG/KT/KT) (MB) (FT/S) (FT/S/D) 5E ST. MARYS GA 2221 75 N/A 3/ 5 FRYING PAN BUOY 2300 75 74 180/ 8/ 10 1015.4R BUOY 41025 2250 75 74 210/ 17/ 19 1014.6R 4/ 9 3/ 80/ 9 CAPE LOOKOUT NC 2300 72 200/ 11/ 14 1014.8R BUOY 41002 2250 74 75 160/ 14/ 17 1017.9F 4/11 3/ 30/11 BUOY 41010 2220 78 79 150/ 14/ 16 1016.4F ST AUGUSTINE FL 2300 76 74 150/ 14/ 15 1015.0F $$

USA.gov is the U.S. government's official web portal to all federal, state and local government web resources and services.